Weather Roundup
Issued by NWS Springfield, MO

Home | Current Version | Previous Version | Graphics & Text | Print | Product List | Glossary On
Versions: 1 2 3 4 5 6 7 8 9 10 11 12 13 14 15 16 17 18 19 20 21 22 23 24 25 26 27 28 29 30 31 32 33 34 35 36 37 38 39 40 41 42 43 44 45 46 47 48 49 50
000
NZUS99 KSGF 041207
HRRSGF

HOURLY WEATHER
NATIONAL WEATHER SERVICE SPRINGFIELD MO
600 AM CST WED MAR 04 2015

......SGF CWA......

CITY           SKY/WX    TMP DP  RH WIND       PRES   REMARKS
SPRINGFIELD    CLOUDY    32  28  85 N15G25    30.02R WCI  22
6HR MIN TEMP:  32; 6HR MAX TEMP:  38; 6HR PCP: TRACE;

JOPLIN         CLOUDY    30  25  81 N17       30.09R WCI  18
6HR MIN TEMP:  30; 6HR MAX TEMP:  37;

WEST PLAINS    MIX PCPN  34  31  88 N12G18    29.97R FOG     WCI  25
6HR MIN TEMP:  34; 6HR MAX TEMP:  42; 6HR PCP:  0.07;

ROLLA          CLOUDY    28  23  81 N17G24    30.05R WCI  16
6HR MIN TEMP:  28; 6HR MAX TEMP:  35; 6HR PCP:  0.08;

OSAGE BEACH    CLOUDY    30  25  80 NW8       30.08R WCI  23

......SURROUNDING SGF CWA......

CITY           SKY/WX    TMP DP  RH WIND       PRES   REMARKS
CHANUTE        LGT SNOW  20  16  84 N15G30    30.16R FOG     WCI   6
PARSONS        FLURRIES  25  18  74 N18G30    30.14R WCI  11
COFFEYVILLE    CLOUDY    27  18  69 N23G30    30.13R WCI  12
EMPORIA        FLURRIES  20   8  60 N15G25    30.19R WCI   6
GROVE OK       RAIN      36  36 100 NE9G17    30.06R WCI  29
ROGERS AR      MIX PCPN  33  32  96 N14       30.01R FOG     WCI  23
SILOAM SPRINGS CLOUDY    34  28  80 NE16      30.01R WCI  23
HARRISON AR    LGT RAIN  35  35 100 N8G17     29.99R FOG     WCI  29
NEAR YELLVILLE CLOUDY    37  34  87 N13G18    29.98R WCI  29

......KANSAS AND MISSOURI......

CITY           SKY/WX    TMP DP  RH WIND       PRES   REMARKS
KANSAS CTY INT CLOUDY    19   6  57 N14       30.21R WCI   6
DOWNTOWN KC    CLOUDY    21   5  50 NE12      30.23R WCI   9
COLUMBIA       CLOUDY    24  16  71 N20G30    30.13R WCI  10
SEDALIA        LGT SNOW  22  17  81 N21       30.17R VSB 3/4 WCI   6
ST JOSEPH      CLOUDY    18   9  68 N16       30.25R WCI   3
ST LOUIS       FLURRIES  29  19  66 N18G24    30.06R WCI  16
SPIRIT OF STL  CLOUDY    27  18  69 N16G22    30.08R WCI  15
WICHITA        FLURRIES  21  15  78 NE17G24   30.16R WCI   7
TOPEKA         CLOUDY    21   7  54 N20       30.24R WCI   6
OLATHE         CLOUDY    20   4  50 NE17      30.18R WCI   5

......TENNESSEE......

CITY           SKY/WX    TMP DP  RH WIND       PRES   REMARKS
MEMPHIS        LGT RAIN  56  54  93 CALM      29.87S VSB 1
NASHVILLE      RAIN      51  50  96 NE7       29.90S FOG

......ARKANSAS.......

CITY           SKY/WX    TMP DP  RH WIND       PRES   REMARKS
FAYETTEVILLE   LGT RAIN  36  35  96 N6        29.98R FOG     WCI  31
FT SMITH       LGT RAIN  47  45  93 N13       29.91R
LITTLE ROCK    LGT RAIN  52  49  89 CALM      29.89R VSB 1/2

......OKLAHOMA.......

CITY           SKY/WX    TMP DP  RH WIND       PRES   REMARKS
TULSA          CLOUDY    33  30  88 N17       30.05R WCI  22
PONCA CITY     CLOUDY    26  17  68 N26       30.12R WCI  10
MCALESTER      RAIN      39  37  92 N16G24    29.98R FOG     WCI  30
OKLAHOMA CITY  CLOUDY    35  26  69 N16G24    30.02R WCI  25

......IOWA............

CITY           SKY/WX    TMP DP  RH WIND       PRES   REMARKS
DES MOINES     PTCLDY    13   0  56 NW9       30.23R WCI   1
QUAD CITIES    MOCLDY    11   1  64 NW16      30.12S WCI  -6

......ILLINOIS........

CITY           SKY/WX    TMP DP  RH WIND       PRES   REMARKS
QUINCY         PTCLDY    14   6  70 N18       30.15R WCI  -3
CHICAGO        PTCLDY    18  12  77 NW14      30.00R WCI   4



USA.gov is the U.S. government's official web portal to all federal, state and local government web resources and services.